Weather Roundup
Issued by NWS Springfield, MO

Home | Current Version | Previous Version | Text Only | Print | Product List | Glossary On
Versions: 1 2 3 4 5 6 7 8 9 10 11 12 13 14 15 16 17 18 19 20 21 22 23 24 25 26 27 28 29 30 31 32 33 34 35 36 37 38 39 40 41 42 43 44 45 46 47 48 49 50
000
NZUS99 KSGF 211107
HRRSGF

HOURLY WEATHER
NATIONAL WEATHER SERVICE SPRINGFIELD MO
600 AM CDT MON MAY 21 2018

......SGF CWA......

CITY           SKY/WX    TMP DP  RH WIND       PRES   REMARKS
SPRINGFIELD    CLOUDY    67  65  93 S6        30.04R FOG
JOPLIN         CLOUDY    63  62  97 NW3       30.06R FOG
WEST PLAINS    CLOUDY    66  64  93 SE3       30.08R
ROLLA          CLOUDY    63  62  97 S7        30.05S
OSAGE BEACH    CLOUDY    65  64  97 CALM      30.05R

......SURROUNDING SGF CWA......

CITY           SKY/WX    TMP DP  RH WIND       PRES   REMARKS
CHANUTE        CLOUDY    59  59 100 NW7       30.07R FOG
PARSONS        CLEAR     57  57 100 CALM      30.07R FOG
COFFEYVILLE    CLEAR     59  58  96 CALM      30.05R FOG
EMPORIA        CLOUDY    57  54  89 NW8       30.07R
GROVE OK       CLOUDY    64  63  94 CALM      30.07R
ROGERS AR      FOG       65  65 100 NW5       30.06S VSB 1/4
SILOAM SPRINGS CLOUDY    65  65 100 NW6       30.06S FOG
HARRISON AR    CLOUDY    66  66 100 CALM      30.06R FOG
NEAR YELLVILLE CLOUDY    66  65  96 E3        30.05S

......KANSAS AND MISSOURI......

CITY           SKY/WX    TMP DP  RH WIND       PRES   REMARKS
KANSAS CTY INT FOG       59  59 100 W3        30.04R VSB 1/2
DOWNTOWN KC    CLOUDY    62  59  90 W6        30.03R FOG
COLUMBIA       CLOUDY    65  63  93 S8        30.03S
SEDALIA        CLOUDY    66  66 100 SW6       30.03S FOG
ST JOSEPH      CLOUDY    59  59 100 W3        30.02S FOG
ST LOUIS       CLOUDY    65  65 100 S3        30.05S
SPIRIT OF STL  CLOUDY    65  64  97 CALM      30.03S
KIRKSVILLE     CLOUDY    64  64 100 S8        30.01S
WICHITA        MOCLDY    59  56  89 N6        30.08S
TOPEKA         CLOUDY    59  57  93 W9        30.05S
OLATHE         CLOUDY    59  59 100 W7        30.04R FOG

......TENNESSEE......

CITY           SKY/WX    TMP DP  RH WIND       PRES   REMARKS
MEMPHIS        CLOUDY    69  68  96 NW5       30.02F
NASHVILLE      MOCLDY    67  64  90 S6        30.11R

......ARKANSAS.......

CITY           SKY/WX    TMP DP  RH WIND       PRES   REMARKS
FAYETTEVILLE   FOG       63  63 100 S7        30.06R VSB 1
FT SMITH       CLOUDY    69  67  93 NE3       30.02R
LITTLE ROCK    CLOUDY    70  70 100 SW6       30.04R THUNDER

......OKLAHOMA.......

CITY           SKY/WX    TMP DP  RH WIND       PRES   REMARKS
TULSA          CLEAR     62  59  90 CALM      30.04R
PONCA CITY     CLEAR     56  53  90 NW3       30.07S FOG
MCALESTER      CLOUDY    67  66  97 N8        30.04R FOG
OKLAHOMA CITY  PTCLDY    60  58  92 N5        30.07S

......IOWA............

CITY           SKY/WX    TMP DP  RH WIND       PRES   REMARKS
DES MOINES     LGT RAIN  59  57  93 NE5       30.01S FOG
QUAD CITIES    CLOUDY    55  52  89 E14       30.06F

......ILLINOIS........

CITY           SKY/WX    TMP DP  RH WIND       PRES   REMARKS
QUINCY         CLOUDY    65  64  97 E8        30.01F
CHICAGO        CLOUDY    50  45  83 NE9       30.12F





USA.gov is the U.S. government's official web portal to all federal, state and local government web resources and services.